INTELSAT 15 (IS-15)

Last updated on Nov. 13, 2019, 4:20 a.m. UTC

1 36106U 09067A   19316.06430118 -.00000172  00000-0  00000+0 0  9991
2 36106   0.0169 292.2514 0002437 297.6863 289.3038  1.00271346 36440
UTC
Height (km)
Latitude
Longitude
Inclination
Orbital Period
UTC large
Height (km)
Speed (km/s)
/
Latitude / Longitude
Inclination (degrees)
Orbital Period (minutes)
Azimuth
Elevation
Range (km)
Doppler Factor
iOS Compass Heading
iOS Angle

Next 30 passes for location: Hong Kong

Rise time Rise Azimuth (degrees) Set time Set Azimuth (degrees) Duration Max altitude (degrees)

No matching passes for this satellites